Location: Ottawa
(45.4170°N, 75.7000°W)
Time: 04:15:29
(UTC-04:00)

ISS - Pass Details

Date: 19 May 2021
Orbit: 417 x 422 km, 51.6° (Epoch: 13 June)

Event Time Altitude Azimuth Distance (km) Brightness Sun altitude
Rises 22:17:59 0° 273° (W) 2,361 0.7 -15.0°
Reaches altitude 10° 22:20:13 10° 284° (WNW) 1,500 -0.2 -15.3°
Maximum altitude 22:23:16 31° 349° (N) 760 -1.8 -15.6°
Drops below altitude 10° 22:26:20 10° 54° (NE) 1,505 -1.0 -15.9°
Sets 22:28:36 0° 65° (ENE) 2,371 -0.1 -16.2°
